VE3KSR Weather Reports


Display with metric or nautical units.
time (UTC)temp
F
wind
direction
speed
MPH
gust
MPH
rain 1hr
in
rain 24hr
in
rain mn
in
humidity
%
barometer
mb
20150729023239 68 0 9.0 10.0 0.70 0.00 0.00 76 1009.8
20150729022816 68 352 9.0 10.0 0.70 0.00 0.00 76 1009.8
20150729022739 68 352 9.0 10.0 0.70 0.00 0.00 76 1009.8
20150729022239 68 347 8.0 9.0 0.70 0.00 0.00 77 1009.7
20150729021739 68 345 8.0 9.0 0.70 0.00 0.00 77 1009.7
20150729021239 68 343 8.0 9.0 0.70 0.00 0.00 77 1009.8
20150729020825 68 338 7.0 8.0 0.70 0.00 0.00 77 1009.6
20150729020739 68 338 7.0 8.0 0.70 0.00 0.00 77 1009.6
20150729020334 68 338 7.0 9.0 0.70 0.00 0.00 76 1009.7
20150729020239 68 338 7.0 9.0 0.70 0.00 0.00 76 1009.7
20150729015739 68 347 7.0 9.0 0.70 0.00 0.00 76 1009.7
20150729015316 68 350 7.0 9.0 0.70 0.00 0.00 76 1009.6
20150729015239 68 350 7.0 9.0 0.70 0.00 0.00 76 1009.6
20150729014739 69 335 8.0 9.0 0.70 0.00 0.00 76 1009.6
20150729014322 69 342 8.0 9.0 0.70 0.00 0.00 75 1009.6
20150729014239 69 342 8.0 9.0 0.70 0.00 0.00 75 1009.6
20150729013840 69 329 8.0 9.0 0.70 0.00 0.00 75 1009.6
20150729013741 69 329 8.0 9.0 0.70 0.00 0.00 75 1009.6
20150729013324 69 342 7.0 9.0 0.70 0.00 0.00 74 1009.5
20150729013239 69 342 7.0 9.0 0.70 0.00 0.00 74 1009.5
20150729012739 69 333 7.0 9.0 0.70 0.00 0.00 74 1009.4
20150729012323 69 326 7.0 9.0 0.70 0.00 0.00 73 1009.5
20150729012241 69 326 7.0 9.0 0.70 0.00 0.00 73 1009.5
20150729011821 69 342 8.0 10.0 0.70 0.00 0.00 72 1009.4
20150729011740 69 342 8.0 10.0 0.70 0.00 0.00 72 1009.4
20150729011240 70 328 7.0 9.0 0.70 0.00 0.00 72 1009.4
20150729010825 70 338 7.0 10.0 0.70 0.00 0.00 71 1009.4
20150729010740 70 338 7.0 10.0 0.70 0.00 0.00 71 1009.4
20150729010316 70 323 7.0 10.0 0.70 0.00 0.00 69 1009.2
20150729010239 70 323 7.0 10.0 0.70 0.00 0.00 69 1009.2
20150729005745 70 349 7.0 10.0 0.70 0.00 0.00 68 1009.4
20150729005342 71 326 6.0 8.0 0.70 0.00 0.00 66 1009.5
20150729005240 71 326 6.0 8.0 0.70 0.00 0.00 66 1009.5
20150729004825 71 316 6.0 8.0 0.70 0.00 0.00 64 1009.5
20150729004740 71 316 6.0 8.0 0.70 0.00 0.00 64 1009.5
20150729004318 72 323 6.0 7.0 0.70 0.00 0.00 60 1009.2
20150729004240 72 323 6.0 7.0 0.70 0.00 0.00 60 1009.2
20150729003740 72 328 5.0 6.0 0.70 0.00 0.00 59 1009.2
20150729003241 72 332 5.0 6.0 0.70 0.00 0.00 59 1009.4
20150729002739 72 345 5.0 6.0 0.70 0.00 0.00 60 1009.4
20150729002239 72 319 5.0 6.0 0.70 0.00 0.00 60 1009.4
20150729001840 72 332 5.0 6.0 0.70 0.00 0.00 60 1009.6
20150729001740 72 332 5.0 6.0 0.70 0.00 0.00 60 1009.6
20150729001240 73 323 5.0 7.0 0.70 0.00 0.00 59 1009.4
20150729000740 73 315 5.0 6.0 0.70 0.00 0.00 58 1009.4
20150729000336 72 316 6.0 7.0 0.70 0.00 0.00 57 1009.5
20150729000241 72 316 6.0 7.0 0.70 0.00 0.00 57 1009.5
20150728235740 73 326 6.0 7.0 0.70 0.00 0.00 58 1009.5
20150728235342 73 325 5.0 6.0 0.70 0.00 0.00 58 1009.4
20150728235240 73 325 5.0 6.0 0.70 0.00 0.00 58 1009.4
20150728234740 73 325 4.0 6.0 0.70 0.00 0.00 59 1009.5
20150728234240 73 312 5.0 6.0 0.70 0.00 0.00 59 1009.5
20150728233826 73 316 5.0 6.0 0.70 0.00 0.00 58 1009.2
20150728233740 73 316 5.0 6.0 0.70 0.00 0.00 58 1009.2
20150728233241 73 0 0.0 0.0 0.70 0.00 0.00 56 1009.2
20150728232740 73 0 0.0 0.0 0.70 0.00 0.00 55 1009.2
20150728232240 74 0 0.0 0.0 0.70 0.00 0.00 55 1009.2
20150728231741 74 0 0.0 0.0 0.70 0.00 0.00 53 1009.4
20150728231243 74 0 0.0 0.0 0.70 0.00 0.00 52 1009.2
20150728230743 74 37 3.0 4.0 0.70 0.00 0.00 52 1009.2
20150728230322 74 13 6.0 6.0 0.70 0.00 0.00 52 1009.6
20150728230242 74 13 6.0 6.0 0.70 0.00 0.00 52 1009.6
20150728225822 74 18 5.0 6.0 0.70 0.00 0.00 53 1009.7
20150728225740 74 18 5.0 6.0 0.70 0.00 0.00 53 1009.7
20150728225331 74 0 0.0 0.0 0.70 0.00 0.00 51 1009.7
20150728225240 74 0 0.0 0.0 0.70 0.00 0.00 51 1009.7
20150728224740 74 28 3.0 3.0 0.70 0.00 0.00 51 1009.8
20150728224343 73 17 5.0 6.0 0.70 0.00 0.00 50 1010.0
20150728224241 73 17 5.0 6.0 0.70 0.00 0.00 50 1010.0
20150728223740 74 18 6.0 7.0 0.70 0.00 0.00 52 1010.1
20150728223241 73 17 7.0 7.0 0.70 0.00 0.00 52 1010.2
20150728222739 73 10 6.0 8.0 0.70 0.00 0.00 52 1010.2
20150728222325 73 20 7.0 8.0 0.70 0.00 0.00 53 1010.2
20150728222240 73 20 7.0 8.0 0.70 0.00 0.00 53 1010.2
20150728221740 73 25 7.0 8.0 0.70 0.00 0.00 54 1010.2
20150728221240 73 39 4.0 8.0 0.70 0.00 0.00 54 1010.4
20150728220824 73 0 0.0 0.0 0.70 0.00 0.00 54 1010.6
20150728220740 73 0 0.0 0.0 0.70 0.00 0.00 54 1010.6
20150728220323 73 0 0.0 0.0 0.70 0.00 0.00 54 1010.6
20150728220240 73 0 0.0 0.0 0.70 0.00 0.00 54 1010.6
20150728215740 73 316 4.0 6.0 0.70 0.00 0.00 51 1010.6
20150728215240 73 14 6.0 7.0 0.70 0.00 0.00 52 1010.7
20150728214740 73 4 7.0 9.0 0.70 0.00 0.00 51 1010.7
20150728214240 72 339 4.0 8.0 0.70 0.00 0.00 54 1010.8
20150728213740 72 307 5.0 7.0 0.70 0.00 0.00 53 1010.9
20150728213324 72 316 7.0 9.0 0.70 0.00 0.00 51 1010.8
20150728213241 72 316 7.0 9.0 0.70 0.00 0.00 51 1010.8
20150728212741 72 350 4.0 8.0 0.70 0.00 0.00 53 1010.9
20150728212241 72 359 6.0 8.0 0.70 0.00 0.00 51 1010.9
20150728211741 72 0 0.0 0.0 0.70 0.00 0.00 52 1010.9
20150728211240 72 336 5.0 7.0 0.70 0.00 0.00 53 1010.9
20150728210741 72 7 8.0 9.0 0.70 0.00 0.00 52 1011.1
20150728210240 73 359 6.0 8.0 0.70 0.00 0.00 54 1011.2
20150728205740 72 6 6.0 9.0 0.70 0.00 0.00 54 1011.0
20150728205240 72 359 7.0 10.0 0.70 0.00 0.00 54 1011.2
20150728204820 72 8 7.0 9.0 0.70 0.00 0.00 52 1011.2
20150728204740 72 8 7.0 9.0 0.70 0.00 0.00 52 1011.2
20150728204240 73 330 7.0 10.0 0.70 0.00 0.00 51 1011.1
20150728203742 73 347 7.0 11.0 0.70 0.00 0.00 52 1011.1
20150728203344 73 298 6.0 8.0 0.70 0.00 0.00 53 1011.2
20150728203240 73 298 6.0 8.0 0.70 0.00 0.00 53 1011.2
20150728202834 73 338 7.0 10.0 0.70 0.00 0.00 52 1011.1
20150728202740 73 338 7.0 10.0 0.70 0.00 0.00 52 1011.1
20150728202330 73 335 6.0 8.0 0.70 0.00 0.00 53 1011.2
20150728202240 73 335 6.0 8.0 0.70 0.00 0.00 53 1011.2
20150728201740 74 55 11.0 56.0 0.70 0.00 0.00 53 1011.3
20150728201240 74 11 6.0 10.0 0.70 0.00 0.00 54 1011.4
20150728200824 73 8 7.0 10.0 0.70 0.00 0.00 53 1011.4
20150728200742 73 8 7.0 10.0 0.70 0.00 0.00 53 1011.4
20150728200326 74 23 9.0 12.0 0.70 0.00 0.00 54 1011.4
20150728200240 74 23 9.0 12.0 0.70 0.00 0.00 54 1011.4
20150728195740 73 354 6.0 8.0 0.70 0.00 0.00 53 1011.5
20150728195244 73 339 5.0 8.0 0.70 0.00 0.00 53 1011.5
20150728193740 73 21 4.0 7.0 0.70 0.00 0.00 53 1011.5
20150728193240 73 353 8.0 10.0 0.70 0.00 0.00 51 1011.5
20150728192741 74 335 6.0 9.0 0.70 0.00 0.00 53 1011.4
20150728192240 74 359 8.0 11.0 0.70 0.00 0.00 53 1011.6
20150728191742 74 329 7.0 10.0 0.70 0.00 0.00 54 1011.7
20150728191323 74 30 4.0 7.0 0.70 0.00 0.00 54 1011.7
20150728191241 74 30 4.0 7.0 0.70 0.00 0.00 54 1011.7
20150728190822 74 23 4.0 9.0 0.70 0.00 0.00 51 1011.8
20150728190741 74 23 4.0 9.0 0.70 0.00 0.00 51 1011.8
20150728190240 74 336 3.0 6.0 0.70 0.00 0.00 52 1011.8
20150728185741 74 338 6.0 10.0 0.70 0.00 0.00 51 1011.8
20150728185241 74 284 4.0 7.0 0.70 0.00 0.00 57 1011.9
20150728184850 74 55 4.0 8.0 0.70 0.00 0.00 51 1012.0
20150728184740 74 55 4.0 8.0 0.70 0.00 0.00 51 1012.0
20150728184323 74 333 5.0 7.0 0.70 0.00 0.00 54 1012.2
20150728184240 74 333 5.0 7.0 0.70 0.00 0.00 54 1012.2
20150728183742 74 322 6.0 8.0 0.70 0.00 0.00 52 1012.2
20150728183319 74 3 6.0 8.0 0.70 0.00 0.00 52 1012.3
20150728183240 74 3 6.0 8.0 0.70 0.00 0.00 52 1012.3
20150728182822 74 34 2.0 6.0 0.70 0.00 0.00 56 1012.3
20150728182741 74 34 2.0 6.0 0.70 0.00 0.00 56 1012.3
20150728182241 74 332 7.0 8.0 0.70 0.00 0.00 52 1012.4
20150728181818 74 353 2.0 9.0 0.70 0.00 0.00 55 1012.4
20150728181740 74 353 2.0 9.0 0.70 0.00 0.00 55 1012.4
20150728181240 74 0 0.0 0.0 0.70 0.00 0.00 53 1012.4
20150728180823 74 31 4.0 6.0 0.70 0.00 0.00 52 1012.4
20150728180740 74 31 4.0 6.0 0.70 0.00 0.00 52 1012.4
20150728180240 73 0 0.0 0.0 0.70 0.00 0.00 53 1012.4
20150728175846 73 23 7.0 8.0 0.70 0.00 0.00 50 1012.6
20150728175740 73 23 7.0 8.0 0.70 0.00 0.00 50 1012.6
20150728175319 73 332 7.0 8.0 0.70 0.00 0.00 49 1012.5
20150728175240 73 332 7.0 8.0 0.70 0.00 0.00 49 1012.5
20150728174822 73 20 7.0 9.0 0.70 0.00 0.00 53 1012.6
20150728174740 73 20 7.0 9.0 0.70 0.00 0.00 53 1012.6
20150728174324 73 312 3.0 7.0 0.70 0.00 0.00 54 1012.7
20150728174240 73 312 3.0 7.0 0.70 0.00 0.00 54 1012.7
20150728173740 73 32 7.0 10.0 0.70 0.00 0.00 50 1012.7
20150728173240 73 46 8.0 9.0 0.70 0.00 0.00 54 1012.8
20150728172838 73 349 6.0 7.0 0.70 0.00 0.00 57 1012.6
20150728172740 73 349 6.0 7.0 0.70 0.00 0.00 57 1012.6
20150728172318 73 319 6.0 8.0 0.70 0.00 0.00 57 1012.6
20150728172240 73 319 6.0 8.0 0.70 0.00 0.00 57 1012.6
20150728171740 73 346 7.0 9.0 0.70 0.00 0.00 57 1012.8
20150728171321 72 345 7.0 10.0 0.70 0.00 0.00 58 1012.9
20150728171240 72 345 7.0 10.0 0.70 0.00 0.00 58 1012.9
20150728170819 72 319 8.0 10.0 0.70 0.00 0.00 57 1012.9
20150728170740 72 319 8.0 10.0 0.70 0.00 0.00 57 1012.9
20150728170320 72 8 6.0 9.0 0.70 0.00 0.00 59 1013.0
20150728170241 72 8 6.0 9.0 0.70 0.00 0.00 59 1013.0
20150728165822 72 38 7.0 9.0 0.70 0.00 0.00 58 1013.0
20150728165741 72 38 7.0 9.0 0.70 0.00 0.00 58 1013.0
20150728165240 72 52 8.0 10.0 0.70 0.00 0.00 58 1013.0
20150728164740 72 349 6.0 10.0 0.70 0.00 0.00 59 1013.0
20150728164319 72 3 6.0 10.0 0.70 0.00 0.00 59 1013.2
20150728164240 72 3 6.0 10.0 0.70 0.00 0.00 59 1013.2
20150728163740 72 357 8.0 11.0 0.70 0.00 0.00 59 1013.0
20150728163241 71 342 5.0 9.0 0.70 0.00 0.00 59 1013.0
20150728162818 71 346 8.0 10.0 0.70 0.00 0.00 58 1013.0
20150728162740 71 346 8.0 10.0 0.70 0.00 0.00 58 1013.0
20150728162315 71 6 7.0 11.0 0.70 0.00 0.00 60 1013.2
20150728162240 71 6 7.0 11.0 0.70 0.00 0.00 60 1013.2
20150728161741 70 333 7.0 9.0 0.70 0.00 0.00 59 1013.0
20150728161241 70 330 8.0 10.0 0.70 0.00 0.00 59 1012.9
20150728160741 71 41 5.0 7.0 0.70 0.00 0.00 62 1013.2
20150728160241 70 305 4.0 8.0 0.70 0.00 0.00 63 1013.2
20150728155740 70 328 7.0 9.0 0.70 0.00 0.00 60 1013.1
20150728155332 70 328 7.0 9.0 0.70 0.00 0.00 61 1013.2
20150728155240 70 328 7.0 9.0 0.70 0.00 0.00 61 1013.2
20150728154741 70 298 6.0 10.0 0.70 0.00 0.00 63 1013.2
20150728154240 71 332 5.0 9.0 0.70 0.00 0.00 63 1013.1
20150728153822 71 336 6.0 9.0 0.70 0.00 0.00 63 1013.0
20150728153741 71 336 6.0 9.0 0.70 0.00 0.00 63 1013.0
20150728153241 71 41 8.0 10.0 0.70 0.00 0.00 60 1013.1
20150728152820 71 38 6.0 8.0 0.70 0.00 0.00 61 1013.1
20150728152740 71 38 6.0 8.0 0.70 0.00 0.00 61 1013.1
20150728152240 71 308 5.0 6.0 0.70 0.00 0.00 65 1013.2
20150728151740 70 38 4.0 5.0 0.70 0.00 0.00 61 1013.1
20150728151340 70 325 6.0 8.0 0.70 0.00 0.00 64 1013.1
20150728151241 70 325 6.0 8.0 0.70 0.00 0.00 64 1013.1
20150728150741 70 336 6.0 8.0 0.70 0.00 0.00 63 1013.1
20150728150241 70 15 7.0 9.0 0.70 0.00 0.00 62 1013.1
20150728145741 70 357 6.0 9.0 0.70 0.00 0.00 65 1013.2
20150728145242 70 321 6.0 8.0 0.70 0.00 0.00 64 1013.3
20150728144742 70 323 4.0 7.0 0.70 0.00 0.00 65 1013.3
20150728144242 70 329 6.0 9.0 0.70 0.00 0.00 64 1013.3
20150728143903 70 323 6.0 8.0 0.70 0.00 0.00 64 1013.4
20150728143821 70 323 6.0 8.0 0.70 0.00 0.00 64 1013.4
20150728143742 70 323 6.0 8.0 0.70 0.00 0.00 64 1013.4
20150728143243 70 346 7.0 9.0 0.70 0.00 0.00 64 1013.2
20150728142843 70 340 6.0 8.0 0.70 0.00 0.00 64 1013.3
20150728142741 70 340 6.0 8.0 0.70 0.00 0.00 64 1013.3
20150728142343 70 294 6.0 7.0 0.70 0.00 0.00 62 1013.3
20150728142243 70 294 6.0 7.0 0.70 0.00 0.00 62 1013.3
20150728141740 70 312 5.0 7.0 0.70 0.00 0.00 62 1013.3
20150728141243 70 346 4.0 7.0 0.70 0.00 0.00 63 1013.4
20150728140850 69 314 6.0 8.0 0.70 0.00 0.00 63 1013.5
20150728140742 69 314 6.0 8.0 0.70 0.00 0.00 63 1013.5
20150728140241 69 336 6.0 7.0 0.70 0.00 0.00 63 1013.5
20150728135741 69 346 5.0 7.0 0.70 0.00 0.00 63 1013.7
20150728135243 69 311 4.0 6.0 0.70 0.00 0.00 63 1013.6
20150728134836 69 307 4.0 6.0 0.70 0.00 0.00 66 1013.8
20150728134748 69 307 4.0 6.0 0.70 0.00 0.00 66 1013.8
20150728134246 69 321 5.0 6.0 0.70 0.00 0.00 68 1013.9
20150728133847 69 0 0.0 0.0 0.70 0.00 0.00 68 1014.0
20150728133742 69 0 0.0 0.0 0.70 0.00 0.00 68 1014.0
20150728133241 68 0 0.0 0.0 0.70 0.00 0.00 67 1014.0
20150728132741 68 0 0.0 0.0 0.70 0.00 0.00 67 1014.1
20150728132319 68 0 0.0 0.0 0.70 0.00 0.00 66 1014.0
20150728132245 68 0 0.0 0.0 0.70 0.00 0.00 66 1014.0
20150728131743 68 0 0.0 0.0 0.70 0.00 0.00 65 1014.1
20150728131241 68 0 0.0 0.0 0.70 0.00 0.00 67 1014.2
20150728130741 68 0 0.0 0.0 0.70 0.00 0.00 70 1014.2
20150728130243 68 0 0.0 0.0 0.70 0.00 0.00 68 1014.3
20150728125744 68 0 0.0 0.0 0.70 0.00 0.00 68 1014.2
20150728125244 68 0 0.0 0.0 0.70 0.00 0.00 66 1014.1
20150728124743 68 0 0.0 0.0 0.70 0.00 0.00 65 1014.0
20150728124241 68 0 0.0 0.0 0.70 0.00 0.00 63 1014.2
20150728123822 67 0 0.0 0.0 0.70 0.00 0.00 64 1014.1
20150728123742 67 0 0.0 0.0 0.70 0.00 0.00 64 1014.1
20150728123241 67 0 0.0 0.0 0.70 0.00 0.00 66 1014.1
20150728122743 67 0 0.0 0.0 0.70 0.00 0.00 65 1014.2
20150728122241 67 0 0.0 0.0 0.70 0.00 0.00 66 1014.2
20150728121826 67 0 0.0 0.0 0.70 0.00 0.00 66 1014.2
20150728121741 67 0 0.0 0.0 0.70 0.00 0.00 66 1014.2
20150728121242 67 0 0.0 0.0 0.70 0.00 0.00 65 1014.3
20150728120746 67 0 0.0 0.0 0.70 0.00 0.00 63 1014.3
20150728120318 67 0 0.0 0.0 0.70 0.00 0.00 64 1014.2
20150728120241 67 0 0.0 0.0 0.70 0.00 0.00 64 1014.2
20150728115741 67 0 0.0 0.0 0.70 0.00 0.00 64 1014.1
20150728115243 67 0 0.0 0.0 0.70 0.00 0.00 64 1014.1
20150728114819 67 0 0.0 0.0 0.70 0.00 0.00 64 1014.2
20150728114741 67 0 0.0 0.0 0.70 0.00 0.00 64 1014.2
20150728114242 67 1 4.0 5.0 0.70 0.00 0.00 64 1014.1
20150728113838 67 1 4.0 5.0 0.70 0.00 0.00 63 1014.1
20150728113742 67 1 4.0 5.0 0.70 0.00 0.00 63 1014.1
20150728113241 67 8 5.0 5.0 0.70 0.00 0.00 63 1014.2
20150728112742 67 21 6.0 6.0 0.70 0.00 0.00 63 1014.1
20150728112243 67 7 5.0 6.0 0.70 0.00 0.00 63 1014.1
20150728111742 67 4 5.0 6.0 0.70 0.00 0.00 63 1014.0
20150728111241 67 1 6.0 6.0 0.70 0.00 0.00 63 1013.8
20150728110820 67 0 0.0 0.0 0.70 0.00 0.00 63 1013.8
20150728110742 67 0 0.0 0.0 0.70 0.00 0.00 63 1013.8
20150728110241 67 0 0.0 0.0 0.70 0.00 0.00 62 1013.7
20150728105745 67 14 2.0 3.0 0.70 0.00 0.00 62 1013.7
20150728105241 67 27 5.0 5.0 0.70 0.00 0.00 63 1013.6
20150728104741 66 20 5.0 5.0 0.70 0.00 0.00 63 1013.7
20150728104242 66 17 6.0 6.0 0.70 0.00 0.00 63 1013.7
20150728103741 66 20 6.0 6.0 0.70 0.00 0.00 64 1013.7
20150728103242 66 7 7.0 8.0 0.70 0.00 0.00 65 1013.7
20150728102742 66 13 7.0 8.0 0.70 0.00 0.00 65 1013.6
20150728102321 66 7 7.0 8.0 0.70 0.00 0.00 65 1013.6
20150728102241 66 7 7.0 8.0 0.70 0.00 0.00 65 1013.6
20150728101741 66 8 7.0 8.0 0.70 0.00 0.00 65 1013.6
20150728101242 66 356 8.0 8.0 0.70 0.00 0.00 65 1013.6
20150728100741 66 0 8.0 8.0 0.70 0.00 0.00 66 1013.5
20150728100241 65 13 8.0 9.0 0.70 0.00 0.00 66 1013.5
20150728095741 66 6 8.0 9.0 0.70 0.00 0.00 66 1013.4
20150728095242 66 11 8.0 9.0 0.70 0.00 0.00 65 1013.4
20150728094741 66 4 8.0 9.0 0.70 0.00 0.00 65 1013.4
20150728094321 66 8 7.0 8.0 0.70 0.00 0.00 65 1013.4
20150728094241 66 8 7.0 8.0 0.70 0.00 0.00 65 1013.4
20150728093741 66 359 7.0 8.0 0.70 0.00 0.00 65 1013.5
20150728093243 66 4 8.0 8.0 0.70 0.00 0.00 64 1013.4
20150728092742 66 3 7.0 8.0 0.70 0.00 0.00 63 1013.4
20150728092242 66 10 7.0 8.0 0.70 0.00 0.00 63 1013.3
20150728091741 66 4 7.0 8.0 0.70 0.00 0.00 63 1013.3
20150728091241 66 10 8.0 8.0 0.70 0.00 0.00 63 1013.3
20150728090744 66 3 8.0 8.0 0.70 0.00 0.00 63 1013.3
20150728090242 66 11 8.0 9.0 0.70 0.00 0.00 63 1013.2
20150728085745 66 1 8.0 8.0 0.70 0.00 0.00 64 1013.2
20150728085244 67 0 7.0 8.0 0.70 0.00 0.00 64 1013.2
20150728084742 66 3 7.0 8.0 0.70 0.00 0.00 64 1013.3
20150728084243 66 7 8.0 9.0 0.70 0.00 0.00 64 1013.3
20150728083824 66 13 8.0 8.0 0.70 0.00 0.00 64 1013.3
20150728083741 66 13 8.0 8.0 0.70 0.00 0.00 64 1013.3
20150728083242 66 3 7.0 8.0 0.70 0.00 0.00 65 1013.2
20150728082742 66 11 7.0 8.0 0.70 0.00 0.00 64 1013.1
20150728082242 67 8 8.0 9.0 0.70 0.00 0.00 64 1013.2
20150728081741 66 4 8.0 8.0 0.70 0.00 0.00 64 1013.1
20150728081323 66 15 8.0 9.0 0.70 0.00 0.00 65 1013.2
20150728081241 66 15 8.0 9.0 0.70 0.00 0.00 65 1013.2
20150728080742 66 10 8.0 9.0 0.70 0.00 0.00 64 1013.1
20150728080316 66 7 8.0 9.0 0.70 0.00 0.00 64 1013.1
20150728080242 66 7 8.0 9.0 0.70 0.00 0.00 64 1013.1
20150728075742 67 4 9.0 9.0 0.70 0.00 0.00 64 1013.0
20150728075245 67 4 9.0 9.0 0.70 0.00 0.00 64 1013.0
20150728074743 67 11 8.0 9.0 0.70 0.00 0.00 64 1013.1
20150728074242 67 20 8.0 9.0 0.70 0.00 0.00 64 1013.1
20150728073741 67 3 8.0 9.0 0.70 0.00 0.00 64 1013.1
20150728073242 67 7 9.0 9.0 0.70 0.00 0.00 64 1013.1
20150728072741 67 10 8.0 9.0 0.70 0.00 0.00 65 1013.1
20150728072244 67 7 9.0 9.0 0.70 0.00 0.00 66 1013.0
20150728071743 67 14 8.0 9.0 0.70 0.00 0.00 66 1013.0
20150728071318 67 6 8.0 9.0 0.70 0.00 0.00 67 1012.9
20150728071243 67 6 8.0 9.0 0.70 0.00 0.00 67 1012.9
20150728070956 66 357 8.0 8.0 0.70 0.00 0.00 67 1013.0
20150728070742 66 357 8.0 8.0 0.70 0.00 0.00 67 1013.0
20150728070241 66 356 7.0 8.0 0.70 0.00 0.00 68 1013.0
20150728065743 66 350 7.0 7.0 0.70 0.00 0.00 69 1013.0
20150728065242 66 354 6.0 7.0 0.70 0.00 0.00 70 1013.1
20150728064242 66 357 8.0 8.0 0.70 0.00 0.00 67 1013.0
20150728063742 66 6 8.0 8.0 0.70 0.00 0.00 66 1013.1
20150728063242 66 7 7.0 8.0 0.70 0.00 0.00 67 1013.1
20150728062742 66 20 7.0 8.0 0.70 0.00 0.00 67 1013.0
20150728062242 66 7 7.0 8.0 0.70 0.00 0.00 67 1013.0
20150728061742 66 7 8.0 8.0 0.70 0.00 0.00 67 1013.1
20150728061247 66 14 8.0 9.0 0.70 0.00 0.00 67 1013.1
20150728060742 66 11 8.0 9.0 0.70 0.00 0.00 67 1013.2
20150728060242 66 13 8.0 9.0 0.70 0.00 0.00 68 1013.2
20150728055742 65 7 8.0 9.0 0.70 0.00 0.00 68 1013.2
20150728055245 65 14 8.0 9.0 0.70 0.00 0.00 68 1013.0
20150728054741 66 8 8.0 8.0 0.70 0.00 0.00 69 1012.9
20150728054242 65 4 8.0 8.0 0.70 0.00 0.00 69 1012.9
20150728053741 65 6 8.0 8.0 0.70 0.00 0.00 69 1012.9
20150728053324 65 8 8.0 8.0 0.70 0.00 0.00 69 1012.8
20150728053244 65 8 8.0 8.0 0.70 0.00 0.00 69 1012.8
20150728052746 66 6 8.0 8.0 0.70 0.00 0.00 69 1013.0
20150728052323 66 7 8.0 9.0 0.70 0.00 0.00 69 1013.0
20150728052242 66 7 8.0 9.0 0.70 0.00 0.00 69 1013.0
20150728051834 65 3 8.0 9.0 0.70 0.00 0.00 69 1012.9
20150728051741 65 3 8.0 9.0 0.70 0.00 0.00 69 1012.9
20150728051243 66 14 8.0 8.0 0.70 0.00 0.00 69 1013.1
20150728050835 66 15 8.0 9.0 0.70 0.00 0.00 69 1013.0
20150728050741 66 15 8.0 9.0 0.70 0.00 0.00 69 1013.0
20150728050241 66 25 8.0 9.0 0.70 0.00 0.00 68 1012.9
20150728045742 66 17 8.0 9.0 0.70 0.00 0.00 68 1012.8
20150728045330 66 14 8.0 9.0 0.70 0.00 0.00 68 1012.8
20150728045242 66 14 8.0 9.0 0.70 0.00 0.00 68 1012.8
20150728044744 66 13 8.0 10.0 0.70 0.00 0.00 68 1012.8
20150728044350 66 14 9.0 10.0 0.70 0.00 0.00 68 1012.7
20150728044241 66 14 9.0 10.0 0.70 0.00 0.00 68 1012.7
20150728043857 66 13 9.0 10.0 0.70 0.00 0.00 68 1012.7
20150728043741 66 13 9.0 10.0 0.70 0.00 0.00 68 1012.7
20150728043242 66 11 9.0 10.0 0.70 0.00 0.00 68 1012.7
20150728043213 66 10 9.0 10.0 0.70 0.00 0.00 69 1012.7
20150728042742 66 10 9.0 10.0 0.70 0.00 0.00 69 1012.7
20150728042334 65 10 8.0 10.0 0.70 0.00 0.00 69 1012.7
20150728042242 65 10 8.0 10.0 0.70 0.00 0.00 69 1012.7
20150728041741 65 8 9.0 10.0 0.70 0.00 0.00 70 1012.7
20150728041244 65 4 9.0 10.0 0.70 0.00 0.00 71 1012.7
20150728040742 65 1 9.0 10.0 0.70 0.00 0.00 71 1012.7
20150728040242 65 352 9.0 10.0 0.70 0.00 0.00 71 1012.8
20150728035742 65 349 10.0 10.0 0.70 0.00 0.00 71 1012.8
20150728035244 65 354 9.0 10.0 0.70 0.00 0.00 71 1012.6
20150728034743 65 356 8.0 10.0 0.70 0.00 0.00 72 1012.6
20150728034243 65 342 8.0 9.0 0.70 0.00 0.00 73 1012.5
20150728033742 65 345 8.0 9.0 0.70 0.00 0.00 72 1012.6
20150728033242 65 343 8.0 9.0 0.70 0.00 0.00 72 1012.5
20150728032742 66 357 8.0 8.0 0.70 0.00 0.00 71 1012.5
20150728032243 66 343 8.0 9.0 0.70 0.00 0.00 70 1012.4
20150728031742 66 1 9.0 10.0 0.70 0.00 0.00 70 1012.3
20150728031242 66 1 9.0 10.0 0.70 0.00 0.00 70 1012.2
20150728030743 66 359 9.0 10.0 0.70 0.00 0.00 71 1012.3
20150728030245 66 0 9.0 10.0 0.70 0.00 0.00 71 1012.3
20150728025743 66 0 9.0 10.0 0.70 0.00 0.00 70 1012.2
20150728025242 66 359 9.0 10.0 0.70 0.00 0.00 70 1012.2
20150728024746 67 0 9.0 10.0 0.70 0.00 0.00 51 1012.2
20150728024742 67 0 9.0 10.0 0.70 0.00 0.00 69 1012.2
20150728024242 66 4 9.0 10.0 0.70 0.00 0.00 68 1012.0
20150728023742 67 7 8.0 10.0 0.70 0.00 0.00 68 1012.0